Regional Weather Roundup
Issued by NWS Portland, ME

Current Version | Previous Version | Text Only | Print | Product List | Glossary Off
Versions: 1 2 3 4 5 6 7 8 9 10 11 12 13 14 15 16 17 18 19 20 21 22 23 24 25 26 27 28 29 30 31 32 33 34 35 36 37 38 39 40 41 42 43 44 45 46 47 48 49 50
507 ASUS41 KGYX 221605 RWRGYX WEATHER ROUNDUP FOR MAINE AND NEW HAMPSHIRE NATIONAL WEATHER SERVICE GRAY ME 1200 PM EDT FRI JUN 22 2018 MEZ002-005-006-010-012-015-018-020-021-024-026-027-029-221700- MAINE CITY SKY/WX TMP DP RH WIND PRES REMARKS PORTLAND FAIR 68 47 46 SE8 30.09F SANFORD FAIR 70 52 52 SE8 30.08S BAR HARBOR FAIR 70 43 37 S5 30.06F WISCASSET FAIR 69 41 36 S9 30.10S ROCKLAND FAIR 66 41 40 S9 30.09S FRYEBURG FAIR 72 45 37 VRB3 30.08S LEWISTONAUBURN FAIR 69 43 38 S12G17 30.08S AUGUSTA FAIR 72 43 35 VRB7 30.07F WATERVILLE FAIR 70 43 37 VRB7 30.04F BANGOR FAIR 70 41 34 S7G18 30.06F GREENVILLE N/A 67 39 35 VRB6 30.04S MILLINOCKET FAIR 69 41 36 VRB3 30.05F HOULTON FAIR 67 40 37 NW9 30.02S PRESQUE ISLE FAIR 67 37 33 SW12 30.02F FRENCHVILLE FAIR 69 37 30 W12 29.99F CARIBOU FAIR 67 39 35 VRB5G16 30.00F $$ NHZ002-005-008-009-011-012-014-221700- NEW HAMPSHIRE CITY SKY/WX TMP DP RH WIND PRES REMARKS PORTSMOUTH MOSUNNY 69 51 53 SE8 30.06F ROCHESTER FAIR 73 51 46 SE6 30.06F NASHUA FAIR 73 51 46 CALM 30.07S MANCHESTER PTSUNNY 74 50 42 VRB7 30.04F CONCORD FAIR 73 50 44 MISG 30.06F LACONIA FAIR 70 46 42 VRB7 30.07S PLYMOUTH FAIR 71 43 36 E6 30.06F BERLIN FAIR 72 44 36 S10 30.05F WHITEFIELD FAIR 71 44 37 W8 30.06S JAFFREY FAIR 71 47 42 SW6 30.07S KEENE FAIR 79 47 32 VRB3 30.05F LEBANON FAIR 73 46 38 VRB5 30.05F MT WASHINGTON NOT AVBL $$ VTZ005-007-008-221700- VERMONT CITY SKY/WX TMP DP RH WIND PRES REMARKS ST JOHNSBURY N/A 69 43 38 MISG 30.04F MONTPELIER FAIR 69 43 38 SE10 30.10S BURLINGTON FAIR 72 45 37 S7 30.04F $$ MAZ007-012-024-CTZ003-RIZ002-NYZ038-NYZ072-221700- SOUTHERN NEW ENGLAND AND NY CITY SKY/WX TMP DP RH WIND PRES REMARKS BOSTON FAIR 70 54 56 E13 30.07F WORCESTER FAIR 69 51 52 E6 30.07S NANTUCKET PTSUNNY 63 59 87 E10 30.06R PROVIDENCE PTSUNNY 74 57 55 VRB5 30.05S HARTFORD PTSUNNY 75 53 46 CALM 30.05S ALBANY PTSUNNY 73 45 36 CALM 30.04F NEW YORK CITY PTSUNNY 70 59 68 NE13 30.02R $$ ANZ081-ANZ082-ANZ150-NHZ014-MEZ023>029-221700- COASTAL MARINE OBSERVATIONS STATION/POSITION TIME TEMP WIND PRES WAVE AIR SEA DIR/SP/G HT/PER (UTC) (F) (DEG/KT/KT) (MB) (FT/S) MOUNT DESERT ROC 1600 57 90/ 4/ 5 1018.5F MATINICUS ROCK 1500 58 80/ 4/ 4 1018.7R ISLE OF SHOALS 1500 58 50/ 11/ 12 1018.5R JEFFREYS LEDGE 1536 62 N/A 2/ 4 $$ .............KEY.............. WCI - WIND CHILL TC - TEMPERATURE IN CELSIUS VSB - VISIBILITY IN MILES HX - HEAT INDEX FAIR- INDICATES FEW OR NO CLOUDS BELOW 12,000 FT, WITH NO SIGNIFICANT WEATHER AND/OR OBSTRUCTIONS TO VISIBILITY.

USA.gov is the U.S. government's official web portal to all federal, state and local government web resources and services.